St. Joseph, KS

8:32 PM CDT on March 26, 2017 (GMT -0500)
Rosecrans Memorial

Weather History for KSTJ - July, 2015

Change the Weather History Date:

Wednesday, July 1, 2015

  Actual Average Record
Temperature  
Mean Temperature 78 °F 76 °F  
Max Temperature 86 °F 86 °F 102 °F (1933)
Min Temperature 69 °F 66 °F 51 °F (1968)
Degree Days  
Heating Degree Days 0 0  
Month to date heating degree days 0 0  
Since 1 June heating degree days 1 8  
Since 1 July heating degree days 0 0  
Cooling Degree Days 13 11  
Month to date cooling degree days 13 11  
Year to date cooling degree days 395 391  
Since 1 June cooling degree days 327 278  
Growing Degree Days 26 (Base 50)    
Moisture  
Dew Point 70 °F    
Average Humidity 80    
Maximum Humidity 90    
Minimum Humidity 69    
Precipitation  
Precipitation 0.32 in 0.16 in 1.06 in (1906)
Month to date precipitation 0.32 0.16  
Year to date precipitation 22.91 17.29  
Sea Level Pressure  
Sea Level Pressure 29.84 in    
Wind  
Wind Speed 9 mph (East)    
Max Wind Speed 18 mph    
Max Gust Speed 24 mph    
Visibility 9 miles    
Events Rain , Thunderstorm    
T = Trace of Precipitation, MM = Missing Value Source: NWS Daily Summary

Daily Weather History Graph

Daily Weather History Graph

Search for Another Location

Airport or City:

Trip Planner

Search our weather history database for the weather conditions in past years. The results will help you decide how hot, cold, wet, or windy it might be!

Date:

Astronomy

Jul. 01, 2015 Rise Set
Actual Time 5:55 AM CDT 8:51 PM CDT
Civil Twilight 5:22 AM CDT 9:24 PM CDT
Nautical Twilight 4:41 AM CDT 10:05 PM CDT
Astronomical Twilight 3:53 AM CDT 10:52 PM CDT
Moon 8:23 PM CDT (7/1) 5:40 AM CDT (7/1)
Length of Visible Light 16h 01m
Length of Day
14h 56m
Full, 100% of the Moon is Illuminated
Jul 1
Full
Jul 1
Full
Jul 8
Last Quarter
Jul 15
New
Jul 23
First Quarter

Hourly Weather History & Observations

Time (CDT) Temp. Heat Index Dew Point Humidity Pressure Visibility Wind Dir Wind Speed Gust Speed Precip Events Conditions
12:01 AM 73.9 °F - 68.0 °F 82% 29.91 in 9.0 mi ENE 3.5 mph - 0.00 in Rain , Thunderstorm Light Rain
12:16 AM 73.9 °F - 66.9 °F 79% 29.91 in 10.0 mi East 9.2 mph - 0.01 in Rain Light Rain
12:53 AM 75.0 °F - 64.0 °F 69% 29.86 in 10.0 mi ESE 10.4 mph - 0.01 in Rain Light Rain
1:53 AM 73.9 °F - 64.9 °F 73% 29.85 in 10.0 mi East 9.2 mph - 0.00 in   Mostly Cloudy
2:53 AM 72.0 °F - 66.9 °F 84% 29.90 in 4.0 mi NNW 8.1 mph - 0.04 in Rain Rain
3:27 AM 70.0 °F - 68.0 °F 93% 29.94 in 4.0 mi NNE 11.5 mph - 0.08 in Rain , Thunderstorm Rain
3:53 AM 70.0 °F - 66.9 °F 90% 29.92 in 4.0 mi ENE 10.4 mph - 0.17 in Rain Heavy Rain
4:53 AM 69.1 °F - 66.9 °F 93% 29.87 in 9.0 mi Variable 4.6 mph - 0.07 in   Overcast
5:53 AM 70.0 °F - 66.9 °F 90% 29.83 in 9.0 mi South 13.8 mph - 0.01 in   Mostly Cloudy
6:08 AM 70.0 °F - 66.9 °F 90% 29.86 in 8.0 mi South 9.2 mph - N/A   Mostly Cloudy
6:53 AM 69.1 °F - 66.9 °F 93% 29.81 in 5.0 mi SSE 13.8 mph - 0.02 in Rain Light Rain
7:53 AM 70.0 °F - 68.0 °F 93% 29.78 in 9.0 mi South 9.2 mph - 0.01 in Rain Light Rain
8:53 AM 73.0 °F - 68.0 °F 84% 29.80 in 10.0 mi SSE 4.6 mph - 0.00 in   Clear
9:46 AM 73.9 °F - 69.1 °F 85% 29.85 in 10.0 mi North 6.9 mph - N/A   Mostly Cloudy
9:53 AM 75.0 °F - 69.1 °F 82% 29.83 in 10.0 mi NE 6.9 mph - N/A   Mostly Cloudy
10:14 AM 75.9 °F - 70.0 °F 82% 29.86 in 10.0 mi NE 9.2 mph - N/A   Scattered Clouds
10:53 AM 77.0 °F - 69.1 °F 76% 29.84 in 10.0 mi East 9.2 mph - N/A   Clear
11:53 AM 80.1 °F 83.6 °F 71.1 °F 74% 29.84 in 10.0 mi ENE 11.5 mph - N/A   Scattered Clouds
12:11 PM 80.1 °F 83.6 °F 71.1 °F 74% 29.86 in 10.0 mi East 5.8 mph - N/A   Mostly Cloudy
12:21 PM 80.1 °F 83.6 °F 71.1 °F 74% 29.86 in 10.0 mi East 10.4 mph - N/A   Scattered Clouds
12:36 PM 79.0 °F - 70.0 °F 74% 29.85 in 10.0 mi ESE 12.7 mph - N/A   Mostly Cloudy
12:48 PM 80.6 °F 84.6 °F 71.6 °F 74% 29.85 in 10.0 mi East 11.5 mph - N/A   Scattered Clouds
12:53 PM 81.0 °F 84.9 °F 71.1 °F 72% 29.82 in 10.0 mi East 10.4 mph - N/A   Scattered Clouds
1:25 PM 80.1 °F 83.2 °F 70.0 °F 71% 29.84 in 10.0 mi ESE 11.5 mph - N/A   Mostly Cloudy
1:35 PM 80.1 °F 83.2 °F 70.0 °F 71% 29.84 in 10.0 mi ESE 9.2 mph - N/A   Overcast
1:53 PM 81.0 °F 84.9 °F 71.1 °F 72% 29.81 in 10.0 mi SE 10.4 mph - N/A   Mostly Cloudy
2:00 PM 81.0 °F 84.9 °F 71.1 °F 72% 29.84 in 10.0 mi SE 9.2 mph - N/A   Mostly Cloudy
2:53 PM 82.0 °F 86.7 °F 72.0 °F 71% 29.80 in 10.0 mi ESE 6.9 mph - N/A   Partly Cloudy
3:53 PM 82.9 °F 89.4 °F 73.9 °F 74% 29.80 in 10.0 mi SE 4.6 mph - N/A   Partly Cloudy
4:53 PM 84.9 °F 91.4 °F 73.0 °F 67% 29.80 in 10.0 mi East 5.8 mph - N/A   Scattered Clouds
5:53 PM 84.0 °F 91.2 °F 73.9 °F 72% 29.80 in 10.0 mi NE 5.8 mph - N/A   Mostly Cloudy
6:04 PM 84.0 °F 91.2 °F 73.9 °F 72% 29.82 in 10.0 mi NE 6.9 mph - N/A   Mostly Cloudy
6:53 PM 82.9 °F 89.4 °F 73.9 °F 74% 29.78 in 10.0 mi ENE 8.1 mph - N/A   Partly Cloudy
7:53 PM 82.0 °F 87.4 °F 73.0 °F 74% 29.78 in 10.0 mi East 6.9 mph - N/A   Partly Cloudy
8:53 PM 80.1 °F 84.2 °F 73.0 °F 79% 29.79 in 10.0 mi ENE 6.9 mph - N/A   Partly Cloudy
9:53 PM 78.1 °F - 71.1 °F 79% 29.82 in 10.0 mi ENE 12.7 mph - N/A   Overcast
10:53 PM 75.9 °F - 70.0 °F 82% 29.83 in 10.0 mi ENE 15.0 mph 21.9 mph N/A   Overcast
11:53 PM 75.0 °F - 70.0 °F 84% 29.83 in 10.0 mi ENE 9.2 mph - N/A   Overcast